Total_Precipitation_Accumulation
0.04 0.06 0.06 0.08 0.08 0.11 0.13 0.15 0.25 0.31 0.32 0.37 0.50 0.69 0.90 0.97 1.14 1.24 1.41 1.47 1.76 1.93 2.07 2.38 2.84 3.29 3.80 3.91 4.04 4.04 4.18 4.44 4.60 4.76 4.75 4.91 4.90 4.88 5.04 5.26 5.24 5.37 5.39 5.15
0.05 0.05 0.04 0.04 0.05 0.10 0.14 0.17 0.28 0.40 0.45 0.51 0.59 0.77 0.97 1.10 1.12 1.39 1.66 1.72 2.19 2.34 2.28 2.46 2.96 3.37 3.80 4.05 4.19 4.40 4.55 4.59 4.72 5.17 5.56 5.87 6.17 6.18 6.12 6.22 6.23 6.03 5.89 5.78
0.05 0.05 0.04 0.05 0.07 0.12 0.16 0.22 0.33 0.49 0.49 0.60 0.73 1.14 1.26 1.24 1.27 1.49 1.82 1.95 2.29 2.46 2.60 2.52 2.66 3.02 3.46 3.84 4.07 4.28 4.60 4.99 5.48 6.09 6.49 6.77 7.10 7.20 6.95 6.70 6.48 6.19 5.99 5.84
0.06 0.05 0.05 0.06 0.08 0.09 0.16 0.17 0.26 0.35 0.45 0.68 0.74 1.34 1.52 1.47 1.57 1.69 1.85 1.91 2.14 2.13 2.34 2.47 2.52 2.76 3.09 3.40 3.75 4.15 4.52 5.16 6.04 6.71 7.12 7.46 7.56 7.57 7.42 7.14 6.67 6.13 5.75 5.41
0.09 0.07 0.07 0.07 0.05 0.06 0.10 0.12 0.19 0.24 0.34 0.57 0.65 1.19 1.55 1.53 1.74 1.86 2.05 2.08 2.07 2.09 2.02 2.12 2.23 2.44 2.82 3.15 3.50 3.95 4.39 5.08 5.78 6.42 6.99 7.44 7.58 7.52 7.30 6.85 6.27 5.64 5.14 4.70
0.08 0.07 0.06 0.05 0.04 0.05 0.09 0.14 0.23 0.31 0.52 0.82 0.66 1.01 1.66 1.80 1.95 2.09 2.08 2.15 2.35 2.29 2.12 2.11 2.09 2.17 2.41 2.75 3.09 3.55 4.00 4.60 5.24 5.67 6.22 6.57 6.75 6.63 6.22 5.68 5.07 4.66 4.32 3.98
0.13 0.10 0.07 0.06 0.07 0.08 0.11 0.25 0.61 0.79 0.88 0.94 0.67 1.09 1.87 2.02 1.95 2.07 2.16 2.26 2.41 2.37 2.27 2.18 2.12 2.11 2.23 2.48 2.80 3.08 3.32 3.82 4.18 4.52 4.99 5.29 5.29 5.10 4.81 4.52 4.26 3.86 3.42 3.04
0.27 0.24 0.12 0.09 0.10 0.12 0.13 0.24 0.65 1.01 0.95 0.91 0.98 1.65 2.23 2.10 1.89 1.85 1.98 2.11 2.18 2.09 2.08 2.08 2.05 2.12 2.18 2.16 2.38 2.57 2.64 2.87 3.10 3.31 3.52 3.58 3.57 3.52 3.49 3.37 3.08 2.74 2.35 2.04
0.36 0.30 0.13 0.09 0.08 0.09 0.14 0.22 0.29 0.53 0.64 0.98 1.50 2.08 2.50 2.20 2.03 1.97 1.86 1.74 1.91 1.92 1.89 1.95 2.02 2.14 2.13 2.02 2.01 2.08 2.12 2.15 2.24 2.31 2.42 2.43 2.41 2.46 2.46 2.42 2.28 2.02 1.84 1.63
0.28 0.27 0.15 0.09 0.08 0.10 0.13 0.18 0.30 0.54 1.02 1.34 1.65 2.21 2.75 2.66 2.52 2.46 2.18 1.86 1.92 1.94 1.96 1.93 1.89 1.96 2.00 1.86 1.81 1.88 1.92 1.83 1.81 1.74 1.72 1.68 1.78 1.85 1.89 1.85 1.70 1.63 1.56 1.46
0.24 0.26 0.22 0.13 0.16 0.19 0.18 0.23 0.32 0.55 0.80 1.30 1.93 2.53 2.49 2.77 2.85 2.63 2.27 1.93 1.92 1.88 1.93 1.97 1.94 1.84 1.79 1.75 1.74 1.64 1.62 1.61 1.54 1.49 1.50 1.44 1.42 1.46 1.46 1.34 1.25 1.24 1.25 1.22
0.24 0.29 0.33 0.22 0.17 0.18 0.22 0.25 0.32 0.68 0.81 0.94 1.68 2.58 2.50 2.79 2.91 2.68 2.51 2.23 2.05 2.07 2.00 1.92 1.89 1.79 1.74 1.64 1.60 1.53 1.48 1.41 1.35 1.37 1.41 1.33 1.27 1.27 1.30 1.23 1.13 1.06 1.06 1.03
0.26 0.44 0.67 0.74 0.58 0.33 0.26 0.24 0.31 0.42 0.64 0.98 1.66 2.56 2.59 2.64 2.56 2.44 2.32 2.26 2.34 2.54 2.36 2.10 1.91 1.66 1.52 1.41 1.32 1.29 1.28 1.25 1.25 1.30 1.36 1.37 1.29 1.24 1.19 1.15 1.03 0.94 0.96 0.96
0.24 0.46 0.87 1.33 1.06 0.54 0.37 0.34 0.39 0.49 0.80 1.13 1.46 2.10 2.42 2.56 2.56 2.57 2.55 2.51 2.41 2.21 1.91 1.71 1.62 1.44 1.34 1.28 1.24 1.18 1.13 1.10 1.10 1.15 1.26 1.31 1.29 1.21 1.13 1.09 1.08 1.00 0.96 0.93
0.31 0.56 0.60 0.61 0.52 0.41 0.40 0.41 0.48 0.56 0.67 1.08 1.39 1.89 2.36 2.55 2.65 2.50 2.55 2.43 2.08 1.85 1.74 1.63 1.57 1.52 1.39 1.27 1.17 1.07 1.01 0.99 0.97 1.05 1.11 1.11 1.10 1.09 1.01 0.98 1.02 0.97 0.94 0.90
0.38 0.66 0.60 0.56 0.47 0.50 0.60 0.60 0.64 0.64 0.74 1.00 1.40 1.98 2.27 2.49 2.60 2.52 2.51 2.31 2.13 2.02 1.93 1.83 1.76 1.67 1.50 1.27 1.16 1.10 1.07 1.05 1.02 1.03 1.02 0.97 0.94 0.93 0.87 0.84 0.82 0.80 0.83 0.90
0.47 0.71 0.84 0.75 0.50 0.75 1.22 0.95 0.85 0.97 0.96 1.23 1.69 1.95 1.86 1.96 2.11 2.23 2.30 2.27 2.14 2.05 2.02 1.99 1.95 1.85 1.67 1.46 1.35 1.26 1.19 1.11 1.07 1.06 0.96 0.90 0.89 0.87 0.81 0.77 0.78 0.79 0.82 0.88
0.48 0.76 0.86 0.88 1.02 1.72 1.65 1.07 0.94 1.07 1.20 1.18 1.35 1.46 1.50 1.55 1.74 1.87 1.95 2.13 2.20 2.13 2.07 2.03 1.95 1.83 1.72 1.58 1.39 1.22 1.07 1.02 1.07 1.07 0.96 0.86 0.85 0.86 0.83 0.85 0.87 0.87 0.85 0.88
0.35 0.67 0.97 1.16 1.54 1.81 1.67 1.17 1.06 1.41 1.73 1.28 1.20 1.23 1.21 1.26 1.50 1.86 1.94 2.07 2.24 2.13 2.07 2.02 1.88 1.78 1.70 1.52 1.30 1.13 1.08 1.01 1.02 1.00 0.91 0.81 0.77 0.81 0.80 0.79 0.82 0.85 0.89 0.91
0.32 0.56 1.06 1.40 1.92 2.18 1.98 1.01 0.74 1.29 2.23 1.42 1.15 1.21 1.31 1.47 1.88 1.94 1.76 1.76 1.93 1.99 2.09 2.03 1.80 1.64 1.54 1.32 1.10 1.03 1.01 0.95 0.91 0.84 0.78 0.72 0.74 0.76 0.76 0.76 0.79 0.85 0.88 0.88
0.73 0.88 1.16 1.53 2.01 2.05 1.27 0.72 0.87 1.98 2.28 1.56 1.38 1.41 1.51 1.72 1.85 1.59 1.39 1.46 1.60 1.75 1.83 1.75 1.61 1.49 1.30 1.12 1.04 1.06 0.97 0.86 0.74 0.67 0.68 0.71 0.76 0.81 0.77 0.82 0.85 0.87 0.86 0.91
1.00 1.32 1.49 1.72 2.13 2.18 1.03 0.80 1.35 1.66 1.29 1.18 1.16 1.17 1.30 1.27 1.17 1.12 1.18 1.30 1.45 1.58 1.57 1.47 1.42 1.32 1.20 1.09 1.10 1.15 1.03 0.81 0.69 0.69 0.73 0.76 0.79 0.68 0.65 0.82 0.84 0.81 0.88 0.93
0.87 1.18 1.48 1.77 2.01 1.64 1.03 1.02 1.08 1.06 1.14 1.08 1.05 0.99 1.08 1.10 1.06 1.05 1.07 1.21 1.32 1.37 1.35 1.22 1.13 1.16 1.17 1.14 1.14 1.18 1.07 0.86 0.79 0.86 0.86 0.80 0.79 0.79 0.82 0.84 0.79 0.78 0.81 0.77
0.88 0.75 1.04 1.37 1.33 1.15 0.99 0.93 0.89 0.88 0.95 0.88 0.86 0.87 1.00 1.15 1.16 1.19 1.10 1.11 1.16 1.17 1.16 1.11 1.08 1.11 1.11 1.06 0.98 1.03 0.96 0.87 0.91 0.94 0.88 0.82 0.83 0.89 0.89 0.80 0.66 0.64 0.63 0.61
0.97 1.09 1.41 1.67 1.42 1.26 1.11 0.94 0.82 0.77 0.71 0.68 0.73 0.78 0.90 1.05 1.09 1.08 1.08 1.05 0.98 0.93 0.93 0.97 1.03 1.01 0.95 0.90 0.81 0.81 0.84 0.84 0.96 0.96 0.88 0.79 0.72 0.73 0.76 0.62 0.48 0.47 0.46 0.46
0.91 1.34 1.92 1.80 1.46 1.53 1.28 0.96 0.80 0.80 0.85 0.79 0.70 0.66 0.70 0.82 0.89 0.93 0.97 0.90 0.81 0.76 0.78 0.83 0.87 0.84 0.83 0.81 0.76 0.75 0.73 0.73 0.89 0.90 0.82 0.71 0.59 0.55 0.51 0.46 0.46 0.40 0.35 0.37